Skip Page Navigation
NASA JPL Caltech
NASA Logo - Jet Propulsion Laboratory + View the NASA Portal
+ Near-Earth Object (NEO) Program
Search JPL
JPL Home Earth Solar System Stars & Galaxies Technology
JPL Solar System Dynamics
BODIES ORBITS EPHEMERIDES TOOLS PHYSICAL DATA DISCOVERY FAQ SITE MAP
JPL Small-Body Database Browser
Search: [ help ]  
3578 Carestia (1977 CC)
Classification: Outer Main-belt Asteroid          SPK-ID: 2003578
Ephemeris | Orbit Diagram | Orbital Elements | Physical Parameters | Discovery Circumstances | Close-Approach Data ]

[ show orbit diagram ]
Orbital Elements at Epoch 2456800.5 (2014-May-23.0) TDB
Reference: JPL 4 (heliocentric ecliptic J2000)
 Element Value Uncertainty (1-sigma)   Units 
e .2083140132954804 9.7157e-08  
a 3.211292298776838 3.9713e-08 AU
q 2.542335112153766 3.123e-07 AU
i 21.31194212741298 1.0044e-05 deg
node 284.7580464590918 2.8375e-05 deg
peri 47.98875554707714 3.4082e-05 deg
M 14.96009616558936 2.346e-05 deg
tp 2456713.152582740627
(2014-Feb-24.65258274)
0.00013602 JED
period 2101.929684496475
5.75
3.899e-05
1.067e-07
d
yr
n .1712711907802184 3.177e-09 deg/d
Q 3.88024948539991 4.7985e-08 AU
  Orbit Determination Parameters
   # obs. used (total)      724  
   data-arc span      27346 days (74.87 yr)  
   first obs. used      1939-08-19  
   last obs. used      2014-07-02  
   planetary ephem.      DE431  
   SB-pert. ephem.      SB431-BIG16  
   condition code      0  
   fit RMS      .48811  
   data source      ORB  
   producer      Otto Matic  
   solution date      2014-Jul-14 12:06:37  

Additional Information
 Earth MOID = 1.57571 AU 
 T_jup = 3.052 
[ show covariance matrix ]

Ephemeris | Orbit Diagram | Orbital Elements | Physical Parameters | Discovery Circumstances | Close-Approach Data ]

Physical Parameter Table
Parameter Symbol Value Units Sigma Reference Notes
absolute magnitude H 10.1 mag n/a MPO236413  
diameter diameter 57.80 km 2.3 IRAS-A-FPA-3-RDR-IMPS-V6.0 IRAS observations used: 9
rotation period rot_per 9.93 h n/a Asteroid Lightcurve DataBase (Rev. 2013-Sep-12) Result based on less than full coverage, so that the period may be wrong by 30 percent or so.
Published Reference List:
[Behrend, R. (2008) Observatoire de Geneve web site, http://obswww.unige.ch/~behrend/page_cou.html]
geometric albedo albedo 0.0121   0.001 IRAS-A-FPA-3-RDR-IMPS-V6.0 IRAS observations used: 9

3578 Carestia (1977 CC)          Discovered 1977-Feb-11 by Felix Aguilar Observatory at El Leoncito
Reference: DISCOVERY.DBLast Updated: 2003-08-29

[ show close-approach data ]
Alternate Designations
 1977 CC = 1939 PL = 1950 LG = 1985 RY 
Ephemeris | Orbit Diagram | Orbital Elements | Physical Parameters | Discovery Circumstances | Close-Approach Data ]
ABOUT SSD CREDITS/AWARDS PRIVACY/COPYRIGHT GLOSSARY LINKS
FirstGov 2014-Jul-29 16:50 UT
(server date/time)  
NASA Home Page
Site Manager:   Donald K. Yeomans
Webmaster  Alan B. Chamberlin